STARLINK-11404, 62019

Orbit data source: Space-Track

STARLINK-11404, 62019 is a payload satellite owned by SpaceX/Seattle (US) in LEO that was launched on Mon, 18 Nov 2024 UTC via an FALCON 9 launch vehicle from the Air Force Western Test Range (AFWTR). Payload-class satellites include a variety of spacecraft equipped with specific instruments for various scientific and technological missions. These include communications satellites like Starlink; space stations such as the ISS; scientific satellites like the Hubble; Earth observation satellites from companies like Planet Labs, Umbra, and HawkEye 360; GPS; miniature CubeSats for education and research; and military/defense satellites.

Loading next visibility...
Identifier
62019, 2024-213M
Orbit
LEO
Last TLE update
11 hours ago
Origin
Manufacturer
SpaceX/Seattle
Mission
Operational Commercial Communications
Bus & Motor
STARLINK V2M, Unknown motor
Mass
730 kg wet, ~700 kg dry
Launch date (UTC)
2024-11-18 (7 months ago)
Launch vehicle
FALCON 9
Launch site
Air Force Western Test Range (AFWTR)
Object type
Payload
Rocket body
Debris
Shape & HBR
Box + 2 Pan, 29 m
Radar Cross Section
36.964 m², Large (>1 m²)

Expand to show TLE details & history

TLE from 11 hours ago
0 STARLINK-11404
1 62019U 24213M   25183.74344987  .00206866  00000-0  16596-2 0  9992
2 62019  53.1569 193.7457 0001480 112.6006 247.5169 15.69862471 35656
Epoch: 2025-07-02T17:50Z
TLE epoch observation values (Epoch: 2025-07-02T17:50:34.068Z)
Latitude
-0.00001°
Longitude
5.08358°
Altitude
360.587 km
Speed
7.694 km/s
True Right ascension
12h 54m 58s
True Declination
0° 00' 00"
Sunlit
Object was in daylight at epoch
Visualization orbit readout
Latitude
-6.12892°
Longitude
-172.68936°
Altitude
360.354 km
Speed
7.694 km/s
Apparent Right ascension
02h 44m 01s
Apparent Declination
-25° 25' 42"
Sunlit
Object is in daylight
Visualization observer readout
Local Sidereal Time
17:05:27
Azimuth
74.671° E
Elevation
-57.184°
Doppler factor
1
Orbital elements
Apogee altitude
360.549 km
Perigee altitude
358.555 km
Semi-major axis
6,737.689 km
Eccentricity
0.00015
Inclination
53.1569°
RAAN
193.7457°
Arg. of periapsis
112.6006°
True anomaly
Unknown
Mean anomaly
247.5169°
Eccentric anomaly
Unknown
Mean motion
3.92443 °/min
Orbital period
91.73 mins
BSTAR
0.0016596
Loading maneuver chart data...
Loading SW <> Apogee altitude chart data...
Loading historical data...
Loading historical data...
Loading historical data...
Loading historical data...
Loading historical data...
Loading historical data...
Loading historical data...

STARLINK-11404 Visibility forecast

Observer location: undefined°, undefined°

Span
Click to sort rows by Start time (UTC) header in descending order
Start Az.
Max El. time (UTC)
Max El. Az.
Max El.
End time (UTC)
End Az.
4 mins2025-07-03 09:35:57.958Z337.201° NNW2025-07-03 09:37:57.958Z40.902° NE26.948°2025-07-03 09:39:57.958Z93.387° ESE
4 mins2025-07-04 03:39:57.958Z260.946° W2025-07-04 03:41:57.958Z342.606° N32.916°2025-07-04 03:43:57.958Z34.18° NE
|